Probability
0 0 0 0 0 0 0 0 0 0 0 0 0 0 0 0 0 0 0 0 0 0 0 0 0 0 0 0 0 0 0 0 0 0 0 0 0 0
0 0 0 0 0 0 0 0 0 0 0 0 0 0 0 0 0 0 0 0 0 0 0 0 0 0 0 0 0 0 0 0 0 0 0 0 0 0
0 0 0 0 0 0 0 0 0 0 0 0 0 0 0 0 0 0 0 0 0 0 0 0 0 0 0 0 0 0 0 0 0 0 0 0 0 0
0 0 0 0 0 0 0 0 0 0 0 0 0 0 0 0 0 0 0 0 0 0 0 0 0 0 0 0 0 0 0 0 0 0 0 0 0 0
0 0 0 0 0 0 0 0 0 0 0 0 0 0 0 0 0 0 0 0 0 0 0 0 0 0 0 0 0 0 0 0 0 0 0 0 0 0
0 0 0 0 0 0 0 0 0 0 0 0 0 0 0 0 0 0 0 0 0 0 0 0 0 0 0 0 0 0 0 0 0 0 0 0 0 0
0 0 0 0 0 0 0 0 0 0 0 0 0 0 0 0 0 0 0 0 0 0 0 0 0 0 0 0 0 0 0 0 0 0 0 0 0 0
0 0 0 0 0 0 0 0 0 0 0 0 0 0 0 0 0 0 0 0 0 0 0 0 0 0 0 0 0 0 0 0 0 0 0 0 0 0
0 0 0 0 0 0 0 0 0 0 0 0 0 0 0 0 0 0 0 0 0 0 0 0 0 0 0 0 0 0 0 0 0 0 0 0 0 0
0 0 0 0 0 0 0 0 0 0 0 0 0 0 0 0 0 0 0 0 0 0 0 0 0 0 0 0 0 0 0 0 0 0 0 0 0 0
0 0 0 0 0 0 0 0 0 0 0 0 0 0 0 0 0 0 0 0 0 0 0 0 0 0 0 0 0 0 0 0 0 0 0 0 0 0
0 0 0 0 0 0 0 0 0 0 0 0 0 0 0 0 0 0 0 0 0 0 0 0 0 0 0 0 0 0 0 0 0 0 0 0 0 0
0 0 0 0 0 0 0 0 0 0 0 0 0 0 0 0 0 0 0 0 0 0 0 0 0 0 0 0 0 0 0 0 0 0 0 0 0 0
0 0 0 0 0 0 0 0 0 0 0 0 0 0 0 0 0 0 0 0 0 0 0 0 0 0 0 0 0 0 0 0 0 0 0 0 0 0
0 0 0 0 0 0 0 0 0 0 0 0 0 0 0 0 0 0 0 0 0 0 0 0 0 0 0 0 0 0 0 0 0 0 0 0 0 0
0 0 0 0 0 0 0 0 0 0 0 0 0 0 0 0 0 0 0 0 0 0 0 0 0 0 0 0 0 0 0 0 0 0 0 0 0 0
0 0 0 0 0 0 0 0 0 0 0 0 0 0 0 0 0 0 0 0 0 0 0 0 0 0 0 0 0 0 0 0 0 0 0 0 0 0
0 0 0 0 0 0 0 0 0 0 0 0 0 0 0 0 0 0 0 0 0 0 0 0 0 0 0 0 0 0 0 0 0 0 0 0 0 0
0 0 0 0 0 0 0 0 0 0 0 0 0 0 0 0 0 0 0 0 0 0 0 0 0 0 0 0 0 0 0 0 0 0 0 0 0 0
0 0 0 0 0 0 0 0 0 0 0 0 0 0 0 0 0 0 0 0 0 0 0 0 0 0 0 0 0 0 0 0 0 0 0 0 0 0
0 0 0 0 0 0 0 0 0 0 0 0 0 0 0 0 0 0 0 0 0 0 0 0 0 0 0 0 0 0 0 0 0 0 0 0 0 0
0 0 0 0 0 0 0 0 0 0 0 0 0 0 0 0 0 0 0 0 0 0 0 0 0 0 0 0 0 0 0 0 0 0 0 0 0 0
0 0 0 0 0 0 0 0 0 0 0 0 0 0 0 0 0 0 0 0 0 0 0 0 0 0 0 0 0 0 0 0 0 0 0 0 0 0
Wind_Speed
6 6 5 4 4 4 3 2 1 2 2 3 3 4 5 4 6 5 5 7 9 9 9 9 9 9 9 9 10 9 9 9 9 10 10 11 11 12
4 6 5 3 4 4 3 3 2 1 1 2 2 4 5 4 7 5 5 9 9 10 10 10 9 10 10 10 10 10 10 9 10 10 10 11 12 12
5 5 5 4 4 3 3 3 3 2 1 2 2 3 4 5 6 5 5 4 5 10 10 10 9 9 9 9 9 9 9 9 10 10 10 11 11 12
5 5 4 3 4 3 2 3 2 1 1 3 3 3 4 5 6 6 5 5 5 9 10 10 9 8 8 8 8 8 8 9 9 9 10 10 11 12
4 4 3 3 3 2 2 2 2 2 1 2 3 2 3 3 4 4 5 4 6 6 7 7 8 8 8 7 7 7 7 7 7 8 8 9 10 10
4 3 3 2 2 2 2 2 2 2 2 2 3 3 3 3 3 4 5 5 5 5 6 7 7 8 7 7 7 7 6 6 6 7 7 7 8 8
4 4 3 4 4 3 3 3 3 2 2 3 3 3 3 3 3 3 4 6 5 2 5 5 5 4 5 6 7 8 7 6 6 6 6 6 6 7
4 4 4 4 6 8 8 7 5 3 3 2 2 4 5 4 3 3 3 4 5 3 4 5 3 4 4 4 7 8 8 7 6 6 6 6 6 7
3 4 4 5 7 6 8 9 8 7 5 4 5 5 5 4 4 5 4 4 4 4 3 4 3 4 4 4 8 7 8 8 8 7 7 7 7 7
4 4 4 6 6 7 7 7 7 6 5 4 6 7 8 7 5 4 4 5 6 3 2 3 3 4 4 4 5 7 8 9 9 8 8 7 7 7
5 5 5 6 8 8 5 7 8 6 5 6 7 9 11 10 6 3 3 3 3 3 1 2 3 4 4 3 4 6 8 8 9 9 9 8 7 6
6 5 6 7 10 8 4 4 6 7 8 9 7 7 6 5 2 3 3 2 2 3 1 1 2 3 4 3 3 4 5 6 8 9 9 9 8 5
5 5 6 11 11 8 4 2 5 7 6 6 6 6 5 4 3 2 3 3 3 3 2 1 2 2 2 4 4 3 4 4 5 5 7 8 8 6
4 5 6 11 9 8 5 6 6 4 3 4 4 5 5 5 5 5 3 4 5 6 4 3 2 2 2 3 4 4 4 4 4 5 5 6 6 6
4 7 8 8 7 6 8 9 6 4 4 4 4 4 4 5 5 4 3 2 3 4 3 4 4 2 2 2 3 4 4 4 5 5 5 5 5 5
4 6 6 7 7 6 6 6 5 4 3 4 4 4 4 4 3 3 3 4 3 3 2 1 2 3 2 2 2 3 3 4 4 5 4 3 4 4
3 3 5 5 7 6 6 6 6 6 6 5 5 5 5 5 4 3 3 2 2 3 4 3 1 1 3 2 2 3 3 3 3 4 4 4 4 5
4 4 4 4 5 5 6 6 6 6 6 6 5 5 5 5 5 4 3 3 3 3 3 3 3 2 1 1 3 3 3 2 3 3 3 3 4 4
4 3 3 4 4 5 5 5 5 6 6 5 5 5 5 4 4 4 4 4 4 4 3 3 2 2 3 4 2 2 2 3 3 3 2 2 3 4
3 3 3 4 4 5 5 5 6 6 6 5 5 5 5 4 4 5 4 4 4 4 4 3 2 2 2 3 4 3 2 3 3 3 3 2 2 3
2 3 3 3 4 4 5 5 5 5 6 5 5 6 5 5 5 5 5 5 4 3 5 4 4 4 3 2 3 3 2 2 3 3 3 3 3 3
2 2 3 3 4 4 5 5 5 5 6 5 6 5 5 5 5 6 5 5 4 4 4 4 4 2 1 2 3 4 4 3 2 4 5 3 3 3
2 2 3 4 4 4 5 6 7 5 5 5 6 6 6 5 5 5 5 4 4 5 5 4 4 2 2 2 3 3 4 5 4 3 2 3 7 9
Wind_Direction
61 60 57 44 42 42 43 42 57 23 358 340 333 337 341 344 354 351 343 339 337 332 325 319 315 310 306 302 300 298 293 291 291 290 291 291 293 296
57 59 53 40 39 38 38 39 46 76 344 317 308 309 320 334 342 340 331 332 324 320 314 307 302 297 295 295 294 293 292 289 286 285 286 289 291 292
49 55 50 42 41 33 34 37 36 36 347 303 287 302 311 324 332 328 320 316 312 311 310 307 303 299 296 295 295 293 292 291 288 286 285 285 286 287
43 48 42 44 43 32 31 29 21 15 335 312 309 313 308 317 321 321 325 326 318 312 315 318 319 319 315 309 304 298 295 293 290 288 287 286 286 287
36 39 30 37 29 17 11 6 351 353 317 296 303 301 298 315 326 323 325 322 322 321 321 329 332 331 327 323 316 307 301 296 291 289 287 287 287 287
26 26 23 23 8 353 348 338 330 335 330 313 304 303 298 307 312 322 329 331 325 324 329 327 327 330 331 333 330 327 319 309 301 295 289 286 286 285
21 16 7 13 10 352 339 324 321 317 320 319 314 308 307 316 322 319 316 323 315 324 325 325 329 330 335 336 338 339 333 327 318 308 300 292 286 283
9 355 347 360 354 350 345 339 323 297 294 289 289 297 296 295 296 306 316 330 322 335 327 314 323 322 331 334 337 340 344 342 334 325 315 304 294 287
351 344 343 344 349 340 337 336 330 314 274 249 267 276 282 287 298 302 304 305 294 307 321 301 315 315 328 335 342 348 353 349 342 335 325 315 306 297
348 338 329 328 335 337 331 330 327 319 301 272 256 270 273 278 266 271 294 297 285 273 253 290 316 317 322 325 338 351 354 353 350 346 341 333 324 314
344 340 332 327 326 334 332 330 330 328 321 308 287 282 281 280 264 247 271 296 314 315 261 286 310 314 310 311 331 345 348 350 351 353 352 351 348 337
338 338 341 338 332 335 327 322 324 322 331 333 331 329 321 318 276 222 241 264 293 299 278 280 307 326 322 312 319 333 344 347 349 353 357 360 359 352
335 335 334 336 338 340 336 297 287 297 310 317 322 331 340 348 347 307 235 229 248 268 272 262 292 305 302 307 313 325 342 346 348 351 356 358 1 1
322 323 323 333 347 1 5 352 337 330 329 339 344 344 341 338 331 322 288 244 240 255 270 247 266 278 300 309 311 323 335 352 352 349 353 355 4 6
312 319 334 353 10 17 13 12 13 11 2 357 346 331 317 310 312 321 330 312 276 256 253 229 230 253 255 285 305 320 324 336 351 349 352 4 6 1
347 343 358 19 29 19 9 11 13 6 358 346 329 319 323 333 346 349 343 344 343 334 336 277 242 234 256 270 286 313 324 324 340 348 348 0 10 10
345 11 22 16 14 8 2 1 3 6 4 353 346 344 345 348 347 343 340 338 340 327 328 341 342 264 248 266 301 315 323 325 334 340 344 358 12 14
56 39 23 15 10 2 355 352 355 359 352 344 345 347 345 343 343 347 346 341 334 324 320 324 332 328 300 217 223 297 319 324 329 335 342 347 0 12
55 36 19 7 359 354 352 348 343 339 337 341 345 345 342 341 348 350 351 345 339 331 327 327 332 338 339 337 328 213 287 318 325 332 339 332 334 347
34 20 6 358 352 349 347 343 338 341 347 346 346 346 346 342 346 348 348 342 331 325 328 336 341 324 300 313 314 307 257 286 314 324 331 314 298 301
11 4 356 350 346 343 342 340 338 340 343 340 343 345 343 341 342 342 338 338 339 332 331 333 327 309 267 268 288 306 310 254 257 292 320 325 333 346
349 349 348 346 344 343 341 340 340 343 345 344 340 339 337 333 334 336 336 335 331 325 312 313 327 335 351 337 329 322 323 329 281 246 246 261 307 330
335 339 341 343 345 342 341 341 342 339 341 338 334 333 333 332 329 327 328 330 328 334 336 335 345 354 359 348 335 329 334 337 336 333 319 248 247 258